Location: Herm
(49.4830°N, 2.4500°W)
Time: 21:16:49
(UTC+00:00)

NOAA 15 - Pass Details

Date: 05 November 2021
Orbit: 797 x 812 km, 98.7° (Epoch: 27 November)

Event Time Altitude Azimuth Distance (km) Brightness Sun altitude
Rises 18:01:13 0° 139° (SE) 3,325 7.5 -13.3°
Reaches altitude 10° 18:03:40 10° 132° (SE) 2,398 6.7 -13.7°
Maximum altitude 18:08:34 40° 65° (ENE) 1,193 5.0 -14.5°
Drops below altitude 10° 18:13:30 10° 358° (N) 2,412 7.0 -15.3°
Sets 18:15:58 0° 351° (N) 3,347 7.9 -15.6°
